Location: Central Coast
(33.3208°S, 151.2336°E)
Time: 20:57:14
(UTC+11:00)

Vanguard 2 Rocket - All Passes

Search period start: 17 December 2017 00:00
Search period end: 27 December 2017 00:00
Orbit: 556 x 3326 km, 32.9° (Epoch: 16 December)

Date Brightness Start Highest point End Pass type
(mag) Time Alt. Az. Time Alt. Az. Time Alt. Az.
17 Dec - 03:32:28 10° N 03:42:04 18° NNE 03:49:24 10° ENE visible
17 Dec - 05:45:12 10° NW 05:57:47 42° NNE 06:05:13 10° E daylight
17 Dec - 08:02:14 10° WNW 08:12:08 76° N 08:17:45 10° E daylight
17 Dec - 10:19:08 10° W 10:25:31 82° N 10:29:47 10° E daylight
17 Dec - 12:34:15 10° W 12:37:58 27° NNW 12:41:25 10° NE daylight
18 Dec - 02:34:32 10° N 02:41:10 13° NE 02:46:53 10° ENE visible
18 Dec - 04:44:04 10° NNW 04:57:27 35° NNE 05:05:55 10° E visible
18 Dec - 07:00:34 10° WNW 07:12:28 66° NNE 07:19:03 10° E daylight
18 Dec - 09:18:16 10° W 09:26:17 88° N 09:31:07 10° E daylight
18 Dec - 11:34:13 10° W 11:39:08 45° NNW 11:42:58 10° NE daylight
19 Dec - 03:43:22 10° NNW 03:56:49 29° NNE 04:06:04 10° E visible
19 Dec - 05:58:45 10° NW 06:12:28 57° NNE 06:20:12 10° E daylight
19 Dec - 08:16:51 10° W 08:26:51 86° N 08:32:29 10° E daylight
19 Dec - 10:33:52 10° W 10:40:11 66° NNW 10:44:26 10° ENE daylight
19 Dec - 12:49:51 10° WNW 12:52:21 15° NNW 12:54:42 10° N daylight
20 Dec - 02:43:27 10° N 02:55:55 23° NNE 03:05:24 10° ENE visible
20 Dec - 04:57:02 10° NW 05:12:09 49° NNE 05:21:05 10° E visible
20 Dec - 07:14:58 10° WNW 07:27:09 80° N 07:33:47 10° E daylight
20 Dec - 09:33:01 10° W 09:41:01 82° N 09:45:50 10° ENE daylight
20 Dec - 11:49:14 10° W 11:53:33 27° NNW 11:57:02 10° NNE daylight
21 Dec - 01:44:52 10° N 01:54:49 16° NE 02:03:14 10° ENE visible
21 Dec - 03:55:38 10° NW 04:11:28 41° NNE 04:21:38 10° E visible
21 Dec - 06:12:49 10° WNW 06:27:08 72° NNE 06:34:59 10° E daylight
21 Dec - 08:31:35 10° W 08:41:36 88° N 08:47:13 10° E daylight
21 Dec - 10:48:39 10° W 10:54:43 46° NNW 10:58:52 10° NE daylight
22 Dec - 00:50:47 10° NNE 00:53:35 10° NE 00:56:16 10° NE visible
22 Dec - 02:54:48 10° NNW 03:10:31 34° NNE 03:21:38 10° E visible
22 Dec - 05:10:39 10° NW 05:26:46 63° NNE 05:36:00 10° E visible
22 Dec - 07:29:37 10° W 07:41:52 87° N 07:48:31 10° E daylight
22 Dec - 09:47:44 10° W 09:55:40 67° NNW 10:00:28 10° ENE daylight
22 Dec - 12:04:51 10° WNW 12:07:46 15° NW 12:10:17 10° N daylight
23 Dec - 01:54:49 10° NNW 02:09:22 26° NE 02:20:48 10° E visible
23 Dec - 04:08:44 10° NW 04:26:04 54° NNE 04:36:42 10° E visible
23 Dec - 06:27:15 10° WNW 06:41:50 83° N 06:49:43 10° E daylight
23 Dec - 08:46:20 10° W 08:56:19 82° N 09:01:55 10° ENE daylight
23 Dec - 11:03:38 10° W 11:09:02 29° NNW 11:12:54 10° NNE daylight
24 Dec - 00:56:06 10° N 01:08:07 19° NE 01:18:34 10° ENE visible
24 Dec - 03:07:17 10° NW 03:25:01 46° NNE 03:37:01 10° E visible
24 Dec - 05:24:46 10° WNW 05:41:24 76° NNE 05:50:45 10° E daylight
24 Dec - 07:44:21 10° W 07:56:36 88° N 08:03:15 10° E daylight
24 Dec - 10:02:31 10° W 10:10:08 48° NNW 10:14:52 10° NE daylight
25 Dec - 00:00:19 10° NNE 00:06:52 12° NE 00:13:07 10° ENE visible
25 Dec - 02:06:31 10° NNW 02:23:45 37° NNE 02:36:45 10° E visible
25 Dec - 04:22:26 10° WNW 04:40:37 67° NNE 04:51:32 10° E visible
25 Dec - 06:41:55 10° W 06:56:33 88° N 07:04:27 10° E daylight
25 Dec - 09:01:03 10° W 09:10:55 68° NNW 09:16:30 10° ENE daylight
25 Dec - 11:19:11 10° W 11:23:06 17° NW 11:26:13 10° N daylight
26 Dec - 01:06:40 10° NNW 01:22:25 29° NE 01:35:38 10° E visible
26 Dec - 03:20:30 10° NW 03:39:29 59° NNE 03:52:00 10° E visible
26 Dec - 05:39:14 10° WNW 05:56:05 85° N 06:05:28 10° E daylight
26 Dec - 07:59:05 10° W 08:11:19 81° NNW 08:17:57 10° ENE daylight
26 Dec - 10:17:27 10° W 10:24:21 32° NW 10:28:53 10° NNE daylight
